{"data":{"norad_id":61245,"epoch":"2026-05-25T03:01:15.396960Z","epoch_age_seconds":67368,"freshness":"FRESH","line1":"1 61245U 24175C   26145.12587265  .00000381  00000+0  80015-5 0  9991","line2":"2 61245  53.1585  39.3236 0000875  76.8203 283.2913 15.69704535 95376","mean_motion":15.69704535,"eccentricity":8.75e-5,"inclination_deg":53.1585,"raan_deg":39.3236,"arg_perigee_deg":76.8203,"mean_anomaly_deg":283.2913,"bstar":8.0015e-6,"rev_number":9537,"period_min":91.737009602256,"perigee_km":359.15282475671,"apogee_km":360.33195364982,"semimajor_km":6737.8793892033,"source":"CELESTRAK","updated_at":"2026-05-25T13:38:19.364146Z"}}